Location: Moena
(46.3667°N, 11.6500°E)
Time: 14:15:42
(UTC+00:00)

USA 305 - Pass Details

Date: 03 March 2021
Orbit: 567 x 574 km, 54.0° (Epoch: 13 April)

Event Time Altitude Azimuth Distance (km) Brightness Sun altitude
Rises 18:05:29 0° 280° (W) 2,779 8.4 -11.7°
Reaches altitude 10° 18:07:58 10° 292° (WNW) 1,880 6.8 -12.1°
Maximum altitude 18:11:45 30° 354° (N) 1,048 4.3 -12.7°
Enters shadow 18:14:59 13° 52° (NE) 1,695 4.9 -13.3°
